Tracking 30970 objects as of 3-Jul-2025
HD Live streaming from Space Station
objects crossing your sky now

SL-14 R/B

Track SL-14 R/B now!
10-day predictions
SL-14 R/B is classified as:


NORAD ID: 11267
Int'l Code: 1979-011B
Perigee: 588.9 km
Apogee: 611.8 km
Inclination: 82.5 °
Period: 96.5 minutes
Semi major axis: 6971 km
RCS: 4.4018 m2 (large)
Launch date: February 12, 1979
Source: Commonwealth of Independent States (former USSR) (CIS)
Launch site: PLESETSK MISSILE AND SPACE COMPLEX (PKMTR)

Note: This is a ROCKET BODY
Your satellite tracking list
Your tracking list is empty




NASA's NSSDC Master Catalog

Two Line Element Set (TLE):
1 11267U 79011B   25183.84365139  .00000523  00000-0  49638-4 0  9997
2 11267  82.5249 333.5145 0016429 166.9299 193.2350 14.91503885491536
Source of the keplerian elements: AFSPC